Location: Newark
(52.3735°N, 16.9806°E)
Time: 21:59:24
(UTC+00:00)

N. Korean satellite - Pass Details

Date: 01 October 2021
Orbit: 450 x 494 km, 97.3° (Epoch: 28 October)

Event Time Altitude Azimuth Distance (km) Brightness Sun altitude
Rises 03:47:17 0° 19° (NNE) 2,548 10.6 -10.9°
Reaches altitude 10° 03:49:27 10° 29° (NNE) 1,671 9.8 -10.5°
Maximum altitude 03:52:49 36° 97° (E) 783 8.3 -10.0°
Drops below altitude 10° 03:56:11 10° 166° (SSE) 1,679 9.4 -9.5°
Sets 03:58:22 0° 175° (S) 2,561 10.2 -9.2°
